This demonstration page uses our WeatherBlox Daily Observations layout. Learn more.

41.55636, -103.73856

Hourly Observations for November 20, 2015

Temp ( °F °C ) Dew Point ( °F °C ) Humidity (%) Winds ( mph kmh ) Pressure ( in mb ) Visibility ( mi km ) Precip ( " mm )
12:53 am 00:53 Cloudy 33 0.6 23 -5 66 66 ESE 7 11 29.87 1012 10 16.0934 0 0
1:53 am 01:53 Mostly Cloudy 31 -0.6 25 -3.9 79 79 ESE 7 11 29.85 1011 10 16.0934 0 0.0254
2:53 am 02:53 Partly Cloudy 30 -1.1 24 -4.4 79 79 ESE 6 9 29.83 1010 10 16.0934 0 0
3:53 am 03:53 Clear 28 -2.2 23 -5 81 81 E 5 7 29.82 1010 10 16.0934 0 0
4:53 am 04:53 Clear 27 -2.8 22 -5.6 81 81 NNE 16 26 29.85 1011 10 16.0934 0 0
5:53 am 05:53 Mostly Cloudy 29 -1.7 24 -4.4 82 82 NNE 20 31 29.87 1011 10 16.0934 0 0
6:45 am 06:45 Cloudy 30 -1.1 26 -3.3 85 85 N 20 31 30 1016 10 16.0934 0 0
6:53 am 06:53 Cloudy 30 -1.1 26 -3.3 85 85 N 16 26 29.91 1013 10 16.0934 0 0
7:15 am 07:15 Cloudy with Light Snow 30 -1.1 25 -3.9 82 82 NNE 18 30 30 1016 1.75 2.816345 0 0.0254
7:21 am 07:21 Windy with Snow Likely 30 -1.1 26 -3.3 85 85 N 20 31 30.03 1017 0.75 1.207005 0 0.0254
7:31 am 07:31 Mostly Cloudy with Heavy Snow 29 -1.7 26 -3.3 89 89 N 14 22 30.03 1017 0.25 0.402335 0.02 0.508
7:47 am 07:47 Mostly Cloudy with Scattered Snow Showers 28 -2 25 -4 86 86 N 16 26 30.06 1018 0.5 0.80467 0.04 1.016
7:53 am 07:53 Mostly Cloudy with Snow 28 -2.2 25 -3.9 88 88 N 12 19 29.97 1015 0.5 0.80467 0.05 1.27
8:07 am 08:07 Cloudy with Light Snow 29 -1.7 25 -3.9 85 85 N 14 22 30.06 1018 2 3.21868 0 0.0254
8:11 am 08:11 Cloudy with Light Snow 28 -2.2 25 -3.9 88 88 N 12 19 30.06 1018 3 4.82802 0 0.0254
8:33 am 08:33 Cloudy with Light Snow 28 -2.2 24 -4.4 85 85 NNW 12 19 30.12 1020 2.5 4.02335 0 0.0254
8:39 am 08:39 Cloudy with Light Snow 28 -2.2 24 -4.4 85 85 NNW 13 20 30.12 1020 0.75 1.207005 0 0.0254
8:46 am 08:46 Mostly Cloudy with Heavy Snow 27 -3 25 -4 93 93 NNW 13 20 30.12 1020 0.25 0.402335 0 0
8:53 am 08:53 Mostly Cloudy with Snow 28 -2.2 24 -4.4 85 85 NNW 13 20 30.05 1018 0.25 0.402335 0.02 0.508
9:01 am 09:01 Mostly Cloudy with Snow 28 -2.2 25 -3.9 88 88 NW 10 17 30.12 1020 0.25 0.402335 0.01 0.254
9:08 am 09:08 Mostly Cloudy with Snow 28 -2 25 -4 86 86 NW 10 17 30.12 1020 0.5 0.80467 0 0
9:32 am 09:32 Cloudy with Light Snow 28 -2 25 -4 86 86 NNW 16 26 30.15 1021 2 3.21868 0 0
9:41 am 09:41 Cloudy with Light Snow 29 -1.7 23 -5 78 78 NNW 13 20 30.15 1021 7 11.26538 0.03 0.762
9:53 am 09:53 Cloudy 29 -1.7 23 -5 78 78 NNW 18 30 30.08 1019 10 16.0934 0.03 0.762
10:53 am 10:53 Cloudy 30 -1.1 23 -5 75 75 NNW 16 26 30.11 1020 10 16.0934 0 0
11:53 am 11:53 Cloudy 30 -1.1 23 -5 75 75 N 15 24 30.14 1021 10 16.0934 0 0
12:53 pm 12:53 Cloudy 30 -1.1 23 -5 75 75 N 18 30 30.15 1021 8 12.87472 0 0.0254
1:53 pm 13:53 Cloudy with Light Snow 30 -1.1 22 -5.6 72 72 N 14 22 30.19 1022 4 6.43736 0 0.0254
2:04 pm 14:04 Cloudy with Light Snow 30 -1 23 -5 75 75 N 13 20 30.24 1024 2.5 4.02335 0 0
2:21 pm 14:21 Cloudy with Light Snow 30 -1.1 23 -5 75 75 N 10 17 30.27 1025 5 8.0467 0 0.0254
2:53 pm 14:53 Cloudy 30 -1.1 23 -5 75 75 NNE 7 11 30.22 1023 8 12.87472 0 0.0254
3:25 pm 15:25 Cloudy with Light Snow 29 -1.7 23 -5 78 78 NNE 9 15 30.27 1025 1.75 2.816345 0 0.0254
3:53 pm 15:53 Mostly Cloudy with Scattered Snow Showers 28 -2.2 24 -4.4 85 85 N 9 15 30.27 1025 1 1.60934 0.01 0.254
4:46 pm 16:46 Cloudy with Light Snow 28 -2 25 -4 86 86 NNE 5 7 30.36 1028 2 3.21868 0 0
4:53 pm 16:53 Cloudy with Light Snow 28 -2.2 25 -3.9 88 88 N 5 7 30.3 1026 2.5 4.02335 0.01 0.254
5:13 pm 17:13 Cloudy with Light Snow 28 -2.2 24 -4.4 85 85 N 5 7 30.39 1029 2.5 4.02335 0 0.0254
5:38 pm 17:38 Cloudy with Light Snow 27 -3 25 -4 93 93 N 5 7 30.39 1029 1.75 2.816345 0 0
5:53 pm 17:53 Cloudy with Light Snow 28 -2.2 25 -3.9 88 88 NNW 5 7 30.34 1027 1.5 2.41401 0.01 0.254
6:53 pm 18:53 Mostly Cloudy with Scattered Snow Showers 27 -2.8 25 -3.9 92 92 NNE 7 11 30.38 1029 1 1.60934 0.03 0.762
7:05 pm 19:05 Mostly Cloudy with Scattered Snow Showers 27 -2.8 25 -3.9 92 92 N 7 11 30.48 1032 0.75 1.207005 0.01 0.254
7:12 pm 19:12 Cloudy with Light Snow 27 -3 25 -4 93 93 NNW 6 9 30.48 1032 2.5 4.02335 0 0
7:20 pm 19:20 Cloudy with Light Snow 27 -3 25 -4 93 93 NNW 5 7 30.48 1032 6 9.65604 0 0
7:33 pm 19:33 Cloudy 26 -3.3 23 -5 88 88 NNW 5 7 30.48 1032 10 16.0934 0.01 0.254
7:53 pm 19:53 Mostly Cloudy 24 -4.4 21 -6.1 88 88 NW 9 15 30.44 1031 10 16.0934 0.01 0.254
8:53 pm 20:53 Mostly Cloudy 25 -3.9 19 -7.2 78 78 NW 12 19 30.46 1032 10 16.0934 0 0
9:53 pm 21:53 Mostly Cloudy 24 -4.4 17 -8.3 75 75 N 17 28 30.49 1033 10 16.0934 0 0
10:53 pm 22:53 Cloudy 22 -5.6 16 -8.9 78 78 NNW 12 19 30.55 1034 10 16.0934 0 0
11:10 pm 23:10 Cloudy 21 -6 16 -9 80 80 NNW 7 11 30.65 1038 10 16.0934 0 0
11:53 pm 23:53 Cloudy 22 -5.6 16 -8.9 78 78 NNW 12 19 30.57 1035 10 16.0934 0 0

Powered by AerisWeather